Location: Godiavel Galaoual
(15.2485°N, 12.6604°W)
Time: 05:08:23
(UTC+00:00)

Explorer 7 - Pass Details

Date: 21 June 2021
Orbit: 484 x 676 km, 50.3° (Epoch: 03 August)

Event Time Altitude Azimuth Distance (km) Brightness Sun altitude
Rises 05:03:35 0° 326° (NW) 2,802 10.4 -17.5°
Reaches altitude 10° 05:05:57 10° 330° (NNW) 1,867 9.5 -17.0°
Maximum altitude 05:10:08 58° 50° (NE) 634 7.4 -16.1°
Drops below altitude 10° 05:14:03 10° 130° (SE) 1,752 9.6 -15.3°
Sets 05:16:12 0° 134° (SE) 2,611 10.5 -14.9°
